Find Starlink 32431

NORAD ID: 61256 Int'l Des: 2024-175 Owner: SPXS Country: US Constellation: starlink operational
LEOCIRCULAR

現在のビュー

3D地球を読み込み中...

About Starlink 32431

Starlink 32431 (NORAD 61256) is a starlink constellation satellite (v2 mini) launched Sep 25, 2024 by SPXS of US. It operates in LEO, CIRCULAR orbit with a mass of 730.00 kg.

次回通過

Passes for default location (London). Set your location on the main map for personalized predictions.

高度履歴

Loading altitude history...

軌道要素

1 61256U 24175P 26263.60390643 .00001003 00000-0 40810-4 0 9990
2 61256 53.1636 5.2946 0001705 37.9717 322.1406 15.34404338111342
Epoch: Sep 20, 2026 • Age: 15 hours

現在のステータス

高度 482.0 km
遠地点 / 近地点 N/A
速度 7.62 km/s
衛星直下点 -53.30°S, 172.28°W
打ち上げ日 Sep 25, 2024
運用期間 1.9 years
タイプ internet

技術仕様

分類 Payload
質量 730.00 kg
乾燥質量 700.00 kg
長さ 0.30 m
スパン 29.00 m
形状 ? Box + pan
製造者 SPXS
バスタイプ Starlink V2M
フェーズステータス In Orbit
所有者/国 SPXS/US

Most Searched